DEMCB EDAZ-EDAY

Flight info

Callsign DEMCB
Flight time 0h 35m
Altitude 7000
Route VFR
Aircraft DA40/L-SBDGRY/S

Departure

Time 2026-05-04 19:29
Airport Schönhagen Airfield (EDAZ)

Arrival

Time 2026-05-04 20:04
Airport Strausberg Airfield (EDAY)
Time Latitude Longitude Altitude Speed Heading
2026-05-04 19:20 52.20409 13.15512 136 ft 0 kts 165°
2026-05-04 19:24 52.20399 13.15536 135 ft 5 kts 82°
2026-05-04 19:24 52.20417 13.15646 133 ft 14 kts 78°
2026-05-04 19:24 52.20441 13.15795 133 ft 12 kts 73°
2026-05-04 19:25 52.20452 13.15882 135 ft 6 kts 76°
2026-05-04 19:25 52.20461 13.15932 136 ft 4 kts 72°
2026-05-04 19:25 52.20471 13.15992 136 ft 7 kts 77°
2026-05-04 19:25 52.20490 13.16105 136 ft 12 kts 81°
2026-05-04 19:26 52.20514 13.16269 136 ft 17 kts 76°
2026-05-04 19:26 52.20541 13.16465 138 ft 16 kts 71°
2026-05-04 19:26 52.20541 13.16564 140 ft 7 kts 116°
2026-05-04 19:26 52.20510 13.16630 140 ft 5 kts 172°
2026-05-04 19:27 52.20484 13.16605 139 ft 0 kts 259°
2026-05-04 19:27 52.20466 13.16490 138 ft 26 kts 258°
2026-05-04 19:28 52.20382 13.15945 138 ft 70 kts 256°
2026-05-04 19:28 52.20278 13.15145 331 ft 73 kts 260°
2026-05-04 19:28 52.20199 13.14329 538 ft 73 kts 261°
2026-05-04 19:28 52.20137 13.13496 743 ft 75 kts 261°
2026-05-04 19:29 52.20036 13.12674 955 ft 76 kts 239°
2026-05-04 19:29 52.19537 13.12475 1112 ft 81 kts 164°
2026-05-04 19:29 52.18978 13.12750 1220 ft 89 kts 159°
2026-05-04 19:29 52.18392 13.13119 1339 ft 90 kts 159°
2026-05-04 19:30 52.17821 13.13523 1462 ft 91 kts 148°
2026-05-04 19:30 52.17406 13.14272 1596 ft 90 kts 114°
2026-05-04 19:30 52.17231 13.15231 1742 ft 89 kts 101°
2026-05-04 19:30 52.17062 13.16191 1879 ft 88 kts 106°
2026-05-04 19:31 52.16900 13.17197 1951 ft 97 kts 101°
2026-05-04 19:31 52.16760 13.18306 2017 ft 107 kts 101°
2026-05-04 19:31 52.16629 13.19518 2124 ft 107 kts 99°
2026-05-04 19:31 52.16530 13.20731 2194 ft 111 kts 96°
2026-05-04 19:32 52.16449 13.22003 2243 ft 114 kts 96°
2026-05-04 19:32 52.16366 13.23330 2235 ft 120 kts 95°
2026-05-04 19:32 52.16318 13.24643 2337 ft 116 kts 92°
2026-05-04 19:32 52.16276 13.25951 2404 ft 116 kts 95°
2026-05-04 19:33 52.16201 13.27290 2395 ft 122 kts 95°
2026-05-04 19:33 52.16136 13.28677 2382 ft 125 kts 95°
2026-05-04 19:33 52.16051 13.30086 2381 ft 125 kts 97°
2026-05-04 19:33 52.15909 13.31482 2429 ft 121 kts 101°
2026-05-04 19:34 52.15740 13.32831 2429 ft 124 kts 101°
2026-05-04 19:34 52.15588 13.34239 2405 ft 127 kts 100°
2026-05-04 19:34 52.15424 13.35694 2244 ft 137 kts 101°
2026-05-04 19:34 52.15261 13.37210 2195 ft 135 kts 99°
2026-05-04 19:35 52.15124 13.38721 2120 ft 135 kts 98°
2026-05-04 19:35 52.15063 13.40206 2159 ft 128 kts 92°
2026-05-04 19:35 52.15034 13.41647 2140 ft 128 kts 88°
2026-05-04 19:35 52.15155 13.43088 2119 ft 129 kts 81°
2026-05-04 19:36 52.15264 13.44521 2132 ft 126 kts 83°
2026-05-04 19:36 52.15387 13.45905 2154 ft 125 kts 81°
2026-05-04 19:36 52.15536 13.47304 2144 ft 126 kts 80°
2026-05-04 19:36 52.15688 13.48701 2174 ft 125 kts 79°
2026-05-04 19:37 52.15874 13.50088 2126 ft 129 kts 76°
2026-05-04 19:37 52.16141 13.51524 2048 ft 131 kts 69°
2026-05-04 19:37 52.16476 13.52879 2088 ft 126 kts 68°
2026-05-04 19:37 52.16895 13.54132 2086 ft 126 kts 57°
2026-05-04 19:38 52.17378 13.55298 2115 ft 124 kts 54°
2026-05-04 19:38 52.17915 13.56379 2096 ft 127 kts 48°
2026-05-04 19:38 52.18598 13.57349 2007 ft 132 kts 33°
2026-05-04 19:38 52.19401 13.58054 1985 ft 130 kts 26°
2026-05-04 19:39 52.20256 13.58601 1914 ft 132 kts 17°
2026-05-04 19:39 52.21120 13.58895 2014 ft 123 kts
2026-05-04 19:39 52.21972 13.58896 2041 ft 123 kts 360°
2026-05-04 19:39 52.22835 13.58873 2014 ft 126 kts 357°
2026-05-04 19:40 52.23712 13.58706 2001 ft 127 kts 351°
2026-05-04 19:40 52.24572 13.58436 1983 ft 127 kts 348°
2026-05-04 19:40 52.25448 13.58090 1900 ft 132 kts 345°
2026-05-04 19:40 52.26336 13.57694 1849 ft 132 kts 343°
2026-05-04 19:41 52.27206 13.57205 1822 ft 131 kts 340°
2026-05-04 19:41 52.28039 13.56729 1866 ft 127 kts 342°
2026-05-04 19:41 52.28883 13.56310 1862 ft 126 kts 344°
2026-05-04 19:41 52.29728 13.55977 1899 ft 123 kts 348°
2026-05-04 19:42 52.30562 13.55707 1962 ft 120 kts 350°
2026-05-04 19:42 52.31381 13.55487 2012 ft 120 kts 352°
2026-05-04 19:42 52.32204 13.55286 2028 ft 122 kts 351°
2026-05-04 19:42 52.33060 13.55017 1990 ft 126 kts 349°
2026-05-04 19:43 52.33915 13.54755 2007 ft 125 kts 350°
2026-05-04 19:43 52.34784 13.54502 1980 ft 127 kts 348°
2026-05-04 19:43 52.35646 13.54164 1946 ft 129 kts 344°
2026-05-04 19:43 52.36510 13.53715 1952 ft 124 kts 342°
2026-05-04 19:44 52.37315 13.53241 1957 ft 126 kts 338°
2026-05-04 19:44 52.38129 13.52674 1947 ft 126 kts 336°
2026-05-04 19:44 52.38857 13.52033 2045 ft 120 kts 326°
2026-05-04 19:44 52.39487 13.51138 2058 ft 122 kts 317°
2026-05-04 19:45 52.40110 13.50182 2095 ft 120 kts 316°
2026-05-04 19:45 52.40628 13.49122 2087 ft 125 kts 292°
2026-05-04 19:45 52.40739 13.47678 2071 ft 124 kts 282°
2026-05-04 19:45 52.41157 13.46404 1942 ft 133 kts 307°
2026-05-04 19:46 52.41727 13.45250 1947 ft 129 kts 312°
2026-05-04 19:46 52.42305 13.44163 1999 ft 123 kts 311°
2026-05-04 19:46 52.42918 13.43145 2002 ft 124 kts 321°
2026-05-04 19:46 52.43678 13.42689 2052 ft 122 kts
2026-05-04 19:47 52.44445 13.43288 2014 ft 126 kts 50°
2026-05-04 19:47 52.44964 13.44387 2100 ft 120 kts 51°
2026-05-04 19:47 52.45485 13.45493 2074 ft 125 kts 54°
2026-05-04 19:47 52.45997 13.46630 2109 ft 123 kts 53°
2026-05-04 19:48 52.46475 13.47802 2107 ft 125 kts 61°
2026-05-04 19:48 52.46865 13.49076 2102 ft 127 kts 65°
2026-05-04 19:48 52.47207 13.50416 2090 ft 127 kts 68°
2026-05-04 19:48 52.47530 13.51756 2106 ft 125 kts 68°
2026-05-04 19:49 52.47877 13.53029 2159 ft 122 kts 64°
2026-05-04 19:49 52.48280 13.54257 2202 ft 121 kts 59°
2026-05-04 19:49 52.48698 13.55426 2223 ft 124 kts 58°
2026-05-04 19:49 52.49183 13.56625 2206 ft 126 kts 55°
2026-05-04 19:50 52.49700 13.57743 2302 ft 119 kts 51°
2026-05-04 19:50 52.50240 13.58773 2338 ft 121 kts 48°
2026-05-04 19:50 52.50839 13.59801 2252 ft 130 kts 44°
2026-05-04 19:50 52.51483 13.60814 2246 ft 126 kts 46°
2026-05-04 19:51 52.52090 13.61859 2186 ft 128 kts 49°
2026-05-04 19:51 52.52665 13.62966 2134 ft 128 kts 51°
2026-05-04 19:51 52.53208 13.64126 2091 ft 128 kts 54°
2026-05-04 19:51 52.53727 13.65312 2037 ft 128 kts 54°
2026-05-04 19:52 52.54256 13.66485 2021 ft 126 kts 54°
2026-05-04 19:52 52.54788 13.67630 1974 ft 127 kts 52°
2026-05-04 19:52 52.55255 13.68857 1931 ft 127 kts 67°
2026-05-04 19:52 52.55634 13.70104 1979 ft 122 kts 66°
2026-05-04 19:53 52.55859 13.71418 1999 ft 120 kts 81°
2026-05-04 19:53 52.55966 13.72771 1999 ft 120 kts 86°
2026-05-04 19:53 52.56000 13.74133 2025 ft 119 kts 88°
2026-05-04 19:53 52.56048 13.75501 2002 ft 122 kts 84°
2026-05-04 19:54 52.56125 13.76889 1997 ft 122 kts 86°
2026-05-04 19:54 52.56160 13.78301 2024 ft 117 kts 88°
2026-05-04 19:54 52.56159 13.79626 2061 ft 117 kts 92°
2026-05-04 19:54 52.56094 13.80956 2095 ft 116 kts 98°
2026-05-04 19:55 52.55947 13.82279 2074 ft 120 kts 105°
2026-05-04 19:55 52.55763 13.83631 1985 ft 126 kts 100°
2026-05-04 19:55 52.55637 13.85117 1831 ft 133 kts 96°
2026-05-04 19:55 52.55572 13.86684 1509 ft 143 kts 94°
2026-05-04 19:56 52.55499 13.88296 1292 ft 141 kts 95°
2026-05-04 19:56 52.55605 13.89837 1227 ft 129 kts 70°
2026-05-04 19:56 52.56001 13.91113 1212 ft 123 kts 62°
2026-05-04 19:56 52.56436 13.92326 1119 ft 124 kts 57°
2026-05-04 19:57 52.56925 13.93462 1082 ft 121 kts 53°
2026-05-04 19:57 52.57417 13.94473 1015 ft 115 kts 50°
2026-05-04 19:57 52.57940 13.95421 992 ft 107 kts 49°
2026-05-04 19:57 52.58422 13.96308 982 ft 104 kts 45°
2026-05-04 19:58 52.59058 13.96758 918 ft 105 kts 348°
2026-05-04 19:58 52.59654 13.96099 889 ft 100 kts 318°
2026-05-04 19:58 52.59856 13.95126 849 ft 99 kts 246°
2026-05-04 19:58 52.59402 13.94270 721 ft 96 kts 226°
2026-05-04 19:59 52.58986 13.93462 510 ft 88 kts 230°
2026-05-04 19:59 52.58610 13.92753 397 ft 78 kts 227°
2026-05-04 19:59 52.58272 13.92104 275 ft 67 kts 229°
2026-05-04 19:59 52.58015 13.91616 264 ft 56 kts 226°
2026-05-04 20:00 52.57701 13.91024 318 ft 75 kts 227°
2026-05-04 20:00 52.57351 13.90410 487 ft 72 kts 224°
2026-05-04 20:00 52.57010 13.89792 633 ft 75 kts 226°
2026-05-04 20:00 52.56565 13.89478 731 ft 83 kts 153°
2026-05-04 20:01 52.56185 13.90119 892 ft 80 kts 118°
2026-05-04 20:01 52.55936 13.90904 1058 ft 79 kts 111°
2026-05-04 20:01 52.56016 13.91780 1166 ft 84 kts 54°
2026-05-04 20:01 52.56509 13.92488 1126 ft 103 kts 33°
2026-05-04 20:02 52.57131 13.93133 1095 ft 111 kts 38°
2026-05-04 20:02 52.57569 13.94189 1047 ft 116 kts 63°
2026-05-04 20:02 52.57948 13.95287 1100 ft 106 kts 59°
2026-05-04 20:02 52.58363 13.96306 1052 ft 107 kts 53°
2026-05-04 20:03 52.58897 13.97092 1023 ft 107 kts 17°
2026-05-04 20:03 52.59576 13.96699 949 ft 108 kts 321°
2026-05-04 20:03 52.59924 13.95635 839 ft 111 kts 265°
2026-05-04 20:03 52.59575 13.94549 734 ft 107 kts 229°
2026-05-04 20:04 52.59118 13.93731 533 ft 91 kts 231°
2026-05-04 20:04 52.58737 13.92993 407 ft 82 kts 232°
2026-05-04 20:04 52.58378 13.92318 309 ft 75 kts 230°
2026-05-04 20:04 52.58100 13.91782 264 ft 43 kts 235°
2026-05-04 20:05 52.57896 13.91394 263 ft 63 kts 230°
2026-05-04 20:05 52.57565 13.90756 394 ft 77 kts 226°
2026-05-04 20:05 52.57211 13.90121 620 ft 76 kts 224°
2026-05-04 20:05 52.56825 13.89474 788 ft 83 kts 214°
2026-05-04 20:06 52.56285 13.89682 931 ft 94 kts 137°
2026-05-04 20:06 52.55807 13.90390 1077 ft 92 kts 135°
2026-05-04 20:06 52.55460 13.91269 1104 ft 98 kts 91°
2026-05-04 20:06 52.55739 13.92242 1156 ft 98 kts 56°
2026-05-04 20:07 52.56149 13.93170 1156 ft 103 kts 52°
2026-05-04 20:07 52.56620 13.94086 1159 ft 105 kts 47°
2026-05-04 20:07 52.57116 13.94981 1147 ft 109 kts 48°
2026-05-04 20:07 52.57643 13.95905 1103 ft 113 kts 46°
2026-05-04 20:08 52.58191 13.96756 1073 ft 107 kts 40°
2026-05-04 20:08 52.58890 13.96952 947 ft 111 kts 339°
2026-05-04 20:08 52.59557 13.96371 846 ft 106 kts 329°
2026-05-04 20:08 52.59897 13.95400 726 ft 101 kts 262°
2026-05-04 20:09 52.59533 13.94457 669 ft 94 kts 225°
2026-05-04 20:09 52.59104 13.93687 564 ft 87 kts 229°
2026-05-04 20:09 52.58725 13.92962 467 ft 79 kts 229°
2026-05-04 20:09 52.58369 13.92287 315 ft 73 kts 232°
2026-05-04 20:10 52.58099 13.91763 264 ft 37 kts 228°
2026-05-04 20:10 52.58008 13.91611 264 ft 19 kts 227°
2026-05-04 20:10 52.57930 13.91456 264 ft 12 kts 229°
2026-05-04 20:10 52.57916 13.91373 263 ft 6 kts 292°
2026-05-04 20:11 52.57955 13.91339 262 ft 11 kts 350°
2026-05-04 20:11 52.58062 13.91316 262 ft 20 kts 350°
2026-05-04 20:11 52.58215 13.91276 262 ft 23 kts 356°
2026-05-04 20:11 52.58347 13.91251 262 ft 17 kts 349°
2026-05-04 20:12 52.58446 13.91225 263 ft 11 kts 358°
2026-05-04 20:12 52.58475 13.91254 263 ft 5 kts 59°
2026-05-04 20:12 52.58494 13.91326 263 ft 10 kts 66°
2026-05-04 20:12 52.58514 13.91367 263 ft 3 kts 352°
2026-05-04 20:13 52.58536 13.91354 263 ft 0 kts 337°